FW4572 Weather Reports


time (UTC)temp
F
wind
direction
speed
knots
gust
knots
rain 1hr
in
rain 24hr
in
rain mn
in
humidity
%
barometer
mb
20260906051827 80 180 0.0 0.0 0.00 0.00 0.00 73 1014.5
20260906050828 80 180 1.7 1.7 0.00 0.00 0.00 75 1014.4
20260906045834 80 247 0.0 0.0 0.00 0.00 0.00 78 1014.4
20260906044835 79 235 1.7 2.6 0.00 0.00 0.00 80 1014.5
20260906042935 79 188 0.0 1.7 0.00 0.00 0.00 83 1015.1
20260906041936 79 180 0.0 0.0 0.00 0.00 0.00 84 1015.0
20260906041033 78 180 0.0 0.0 0.00 0.00 0.00 85 1015.1
20260906040035 78 22 0.0 0.0 0.00 0.00 0.00 85 1015.2
20260906035035 78 180 1.7 1.7 0.00 0.00 0.00 84 1015.3
20260906034034 79 202 0.0 0.0 0.00 0.00 0.00 83 1014.9
20260906032035 80 180 0.0 0.9 0.00 0.00 0.00 80 1015.0
20260906031133 80 180 0.0 0.0 0.00 0.00 0.00 78 1014.9
20260906030135 80 180 0.0 0.0 0.00 0.00 0.00 78 1014.7
20260906025134 80 225 0.0 0.0 0.00 0.00 0.00 77 1014.6
20260906024134 81 180 0.0 0.0 0.00 0.00 0.00 77 1014.5
20260906023035 82 337 0.0 0.0 0.00 0.00 0.00 75 1014.2
20260906022034 82 23 0.0 0.0 0.00 0.00 0.00 73 1014.0
20260906021036 83 112 0.0 0.0 0.00 0.00 0.00 72 1014.0
20260906015135 83 112 0.0 0.0 0.00 0.00 0.00 70 1013.7
20260906014233 83 112 0.0 0.0 0.00 0.00 0.00 71 1013.8
20260906013234 83 157 0.0 0.0 0.00 0.00 0.00 71 1013.6
20260906012250 84 157 0.0 0.0 0.00 0.00 0.00 69 1013.7
20260906011250 85 337 0.0 0.0 0.00 0.00 0.00 68 1013.9
20260906010234 85 337 0.9 1.7 0.00 0.00 0.00 67 1013.7
20260906005234 85 180 0.0 0.0 0.00 0.00 0.00 67 1013.8
20260906004234 85 180 0.0 0.0 0.00 0.00 0.00 66 1013.5
20260906003234 86 180 0.0 0.0 0.00 0.00 0.00 65 1013.5
20260906002235 88 180 0.0 0.0 0.00 0.00 0.00 62 1013.5
20260906000235 90 180 0.0 0.0 0.00 0.00 0.00 59 1013.5
20260905235234 91 180 0.0 0.0 0.00 0.00 0.00 56 1013.8
20260905234250 93 180 0.0 0.0 0.00 0.00 0.00 54 1013.7
20260905233333 94 180 0.0 0.0 0.00 0.00 0.00 50 1013.5
20260905233252 95 180 0.0 0.0 0.00 0.00 0.00 51 1013.6
20260905232337 96 180 0.0 0.0 0.00 0.00 0.00 49 1013.7
20260905231334 98 180 0.0 0.0 0.00 0.00 0.00 46 1013.8
20260905230335 100 180 0.0 0.0 0.00 0.00 0.00 44 1013.7
20260905225335 101 180 0.0 0.0 0.00 0.00 0.00 42 1013.7
20260905224434 101 112 0.0 0.0 0.00 0.00 0.00 43 1013.7
20260905223433 100 180 0.0 0.0 0.00 0.00 0.00 43 1013.8
20260905222434 98 311 0.0 0.0 0.00 0.00 0.00 44 1013.9
20260905222335 98 273 0.0 1.7 0.00 0.00 0.00 43 1013.8
20260905221334 101 173 1.7 3.5 0.00 0.00 0.00 41 1013.8
20260905220336 101 220 0.0 0.9 0.00 0.00 0.00 42 1013.8
20260905215334 100 360 0.9 1.7 0.00 0.00 0.00 42 1013.8
20260905214334 101 245 0.0 1.7 0.00 0.00 0.00 42 1013.9
20260905213335 101 182 0.0 1.7 0.00 0.00 0.00 42 1014.0
20260905212434 101 148 0.0 1.7 0.00 0.00 0.00 42 1014.0
20260905211434 101 192 4.3 7.0 0.00 0.00 0.00 40 1013.9
20260905210435 103 222 0.9 4.3 0.00 0.00 0.00 39 1014.0
20260905204435 102 14 0.0 3.5 0.00 0.00 0.00 41 1014.3
20260905203451 101 360 0.0 0.0 0.00 0.00 0.00 42 1014.4
20260905202533 100 187 0.0 0.0 0.00 0.00 0.00 42 1014.5
20260905201550 101 202 2.6 4.3 0.00 0.00 0.00 43 1014.6
20260905200532 100 151 0.0 0.9 0.00 0.00 0.00 43 1014.6
20260905195534 99 293 0.0 0.0 0.00 0.01 0.00 45 1014.9
20260905194536 100 213 0.0 3.5 0.00 0.02 0.00 44 1015.0
20260905193532 99 227 0.9 3.5 0.00 0.03 0.00 44 1015.2
20260905192534 99 212 1.7 3.5 0.00 0.04 0.00 45 1015.4
20260905191537 98 215 0.0 1.7 0.00 0.07 0.00 46 1015.5
20260905190534 99 226 1.7 3.5 0.00 0.07 0.00 45 1015.7
20260905185633 98 318 0.0 1.7 0.00 0.07 0.00 46 1015.9
20260905184733 98 322 0.0 2.6 0.00 0.07 0.00 46 1015.9
20260905183735 98 310 0.0 1.7 0.00 0.07 0.00 46 1016.0
20260905181734 98 325 0.0 1.7 0.00 0.07 0.00 49 1016.3
20260905180734 97 112 0.0 0.0 0.00 0.07 0.00 49 1016.4
20260905175733 96 157 0.0 0.0 0.00 0.07 0.00 51 1016.3
20260905173732 95 241 0.9 2.6 0.00 0.07 0.00 50 1016.4
20260905172748 96 348 0.0 0.0 0.00 0.07 0.00 52 1016.5
20260905171832 95 156 0.9 1.7 0.00 0.07 0.00 54 1016.6
20260905170834 94 200 0.0 0.0 0.00 0.07 0.00 56 1016.7
20260905165933 93 182 2.6 3.5 0.00 0.07 0.00 57 1016.8
20260905164951 92 213 1.7 3.5 0.00 0.07 0.00 60 1017.0
20260905164035 90 138 0.0 0.9 0.00 0.07 0.00 61 1017.1
20260905163035 90 199 3.5 6.1 0.00 0.07 0.00 63 1017.3
20260905162942 90 204 0.9 2.6 0.00 0.07 0.00 62 1017.2
20260905161933 89 202 2.6 4.3 0.00 0.07 0.00 63 1017.3
20260905160933 90 196 1.7 3.5 0.00 0.07 0.00 64 1017.4
20260905155934 89 202 2.6 4.3 0.00 0.07 0.00 65 1017.5
20260905154952 88 337 0.0 0.0 0.00 0.07 0.00 68 1017.6
20260905153035 86 202 0.0 0.0 0.00 0.07 0.00 71 1017.5
20260905151132 85 202 0.0 0.0 0.00 0.07 0.00 74 1017.5
20260905150133 84 202 0.0 0.0 0.00 0.07 0.00 77 1017.7
20260905145150 82 187 0.0 0.0 0.00 0.07 0.00 81 1017.8
20260905144232 81 180 0.0 0.9 0.00 0.07 0.00 84 1017.6
20260905142233 79 180 1.7 1.7 0.00 0.07 0.00 87 1017.8
20260905141332 78 180 0.0 0.0 0.00 0.07 0.00 89 1017.9
20260905140332 77 180 0.0 0.0 0.00 0.07 0.00 90 1017.8
20260905135333 77 180 0.0 0.0 0.00 0.07 0.00 91 1017.7
20260905134351 77 180 0.0 0.0 0.00 0.07 0.00 92 1017.8
20260905133333 76 180 0.0 0.0 0.00 0.07 0.00 92 1017.7
20260905132334 76 180 0.0 0.0 0.00 0.07 0.00 94 1017.8
20260905131333 75 180 0.0 0.0 0.00 0.07 0.00 94 1017.8
20260905130431 74 180 0.0 0.0 0.00 0.07 0.00 93 1017.7
20260905125435 74 180 0.0 0.0 0.00 0.07 0.00 94 1017.8
20260905124434 74 180 0.0 0.0 0.00 0.07 0.00 94 1017.7
20260905123433 74 180 0.0 0.0 0.00 0.07 0.00 93 1017.6
20260905122432 73 360 0.0 0.0 0.00 0.07 0.00 94 1017.5
20260905121434 72 360 0.0 0.0 0.00 0.07 0.00 95 1017.3
20260905120435 72 360 0.0 0.0 0.00 0.07 0.00 94 1017.4
20260905114533 73 360 0.0 0.0 0.00 0.07 0.00 95 1017.3
20260905113532 72 360 0.0 0.0 0.00 0.07 0.00 95 1017.1
20260905112532 72 360 0.0 0.0 0.00 0.07 0.00 94 1016.9
20260905111536 72 360 0.0 0.0 0.00 0.07 0.00 95 1016.9
20260905110631 72 360 0.0 0.0 0.00 0.07 0.00 95 1016.8
20260905105633 71 360 0.0 0.0 0.00 0.07 0.00 95 1016.7
20260905104632 71 360 0.0 0.0 0.00 0.07 0.00 95 1016.6
20260905103632 72 360 0.0 0.0 0.00 0.07 0.00 94 1016.5
20260905100632 72 360 0.0 0.0 0.00 0.07 0.00 95 1016.4
20260905095634 72 360 0.0 0.0 0.00 0.07 0.00 94 1016.2
20260905094632 72 360 0.0 0.0 0.00 0.07 0.00 95 1016.2
20260905092633 72 360 0.0 0.0 0.00 0.07 0.00 95 1016.2
20260905091634 72 360 0.0 0.0 0.00 0.07 0.00 95 1016.1
20260905090633 72 360 0.0 0.0 0.00 0.07 0.00 94 1016.0
20260905085633 72 360 0.0 0.0 0.00 0.07 0.00 95 1016.1
20260905084633 72 360 0.0 0.0 0.00 0.07 0.00 95 1016.2
20260905082634 71 360 0.0 0.0 0.00 0.07 0.00 95 1016.1
20260905081733 71 360 0.0 0.0 0.00 0.07 0.00 94 1016.2
20260905080733 72 360 0.0 0.0 0.00 0.07 0.00 93 1016.4
20260905075733 72 360 0.0 0.0 0.00 0.07 0.00 94 1016.2
20260905074832 72 360 0.0 0.0 0.00 0.07 0.00 93 1016.2
20260905073833 73 360 0.0 0.0 0.00 0.07 0.00 93 1016.2
20260905072833 73 360 0.0 0.0 0.00 0.07 0.00 92 1016.2
20260905071931 73 360 0.0 0.0 0.00 0.07 0.00 92 1016.1
20260905070934 74 360 0.0 0.0 0.00 0.07 0.00 91 1016.1
20260905070032 74 360 0.0 0.0 0.00 0.07 0.00 91 1016.1
20260905065032 75 360 0.0 0.0 0.00 0.07 0.00 89 1016.1
20260905064033 76 360 0.0 0.0 0.00 0.07 0.00 87 1016.2
20260905063035 76 360 0.0 0.0 0.00 0.07 0.00 86 1016.4
20260905062050 76 337 0.0 0.0 0.00 0.07 0.00 87 1016.4
20260905061032 76 337 0.0 0.0 0.00 0.07 0.00 88 1016.3
20260905060036 76 337 0.0 0.9 0.00 0.07 0.00 89 1016.4
20260905053035 75 202 0.0 0.0 0.00 0.07 0.00 90 1016.6